Location: Zagreb
(45.8000°N, 16.0000°E)
Time: 14:40:30
(UTC+02:00)

Tiros 1 despin weight - Pass Details

Date: 12 August 2022
Orbit: 590 x 639 km, 48.2° (Epoch: 23 September)

Event Time Altitude Azimuth Distance (km) Brightness Sun altitude
Rises 16:44:36 0° 285° (WNW) 2,833 ? 34.2°
Reaches altitude 10° 16:46:54 10° 287° (WNW) 1,926 ? 33.8°
Maximum altitude 16:51:19 77° 14° (NNE) 610 ? 33.0°
Drops below altitude 10° 16:55:42 10° 101° (E) 1,915 ? 32.3°
Sets 16:57:59 0° 102° (ESE) 2,816 ? 31.9°
